Terminal Aerodrome Forecast
Issued by NWS Raleigh/Durham, NC

Home | Current Version | Previous Version | Text Only | Print | Product List | Glossary On
Versions: 1 2 3 4 5 6 7 8 9 10 11 12 13 14 15 16 17 18 19 20 21 22 23 24 25 26 27 28 29 30 31 32 33 34 35 36 37 38 39 40 41 42 43 44 45 46
000
FTUS42 KRAH 211740
TAFFAY
TAF
KFAY 211740Z 2118/2218 16005KT P6SM SCT040 SCT250
     FM220600 00000KT 4SM BR SCT250
      TEMPO 2209/2213 1/2SM FG BKN003
     FM221300 23006KT P6SM SCT040=

USA.gov is the U.S. government's official web portal to all federal, state and local government web resources and services.